Regional Weather Roundup
Issued by NWS Charleston, SC

Current Version | Previous Version | Text Only | Print | Product List | Glossary Off
Versions: 1 2 3 4 5 6 7 8 9 10 11 12 13 14 15 16 17 18 19 20 21 22 23 24 25 26 27 28 29 30 31 32 33 34 35 36 37 38 39 40 41 42 43 44 45 46 47 48 49 50

000
ASUS42 KCHS 290028
RWRCHS

REGIONAL WEATHER ROUNDUP
NATIONAL WEATHER SERVICE CHARLESTON SC
800 PM EDT SAT MAY 28 2016

NOTE: "FAIR" INDICATES FEW OR NO CLOUDS BELOW 12,000 FEET WITH NO
SIGNIFICANT WEATHER AND/OR OBSTRUCTIONS TO VISIBILITY.

NOT ALL STATIONS ARE QUALITY CONTROLLED. USE DATA WITH CAUTION...
ESPECIALLY DEWPOINT OBSERVATIONS.

SCZ027-030-031-034>040-042>050-290100-
...SOUTHEAST SOUTH CAROLINA...

CITY           SKY/WX    TMP DP  RH WIND       PRES   REMARKS
N CHARLESTON   RAIN      70  67  90 N14       30.06F FOG
6HR MIN TEMP:  70; 6HR MAX TEMP:  73; 6HR PCP:  1.56;

WATERFRONT PRK   N/A     70  69  97 N15       30.03F
MOUNT PLEASANT RAIN      68  68 100 N8        30.05F
JOHNS ISLAND   HVY RAIN  70  70 100 N13G21    30.04F
PINOPOLIS      NOT AVBL
MONCKS CORNER  RAIN      64  61  88 N5        30.08F
SUMMERVILLE    HVY RAIN  70  70 100 N7        30.10S
BEAUFORT MCAS  RAIN      70  68  93 NE15      30.05F FOG
6HR MIN TEMP:  69; 6HR MAX TEMP:  75; 6HR PCP:  0.57;

BEAUFORT ARPT  RAIN      70  68  94 NE18      30.05R
HILTON HEAD IS RAIN      70  70 100 N15G21    30.04F
WALTERBORO     HVY RAIN  70  70 100 NE12      30.09F
ALLENDALE      LGT RAIN  68  64  88 N6        30.09S

...SOUTHERN MIDLANDS AND PEE DEE...

CITY           SKY/WX    TMP DP  RH WIND       PRES   REMARKS
GEORGETOWN     RAIN      70  68  94 N8        30.08
KINGSTREE      CLOUDY    70  68  94 CALM      30.10S
ORANGEBURG     LGT RAIN  70  66  87 E3        30.11S
6HR MIN TEMP:  70; 6HR MAX TEMP:  83; 6HR PCP:  0.06;

BARNWELL       DRIZZLE   70  70 100 E6        30.12R
AIKEN          MOCLDY    70  68  94 E6        30.15R
MANNING        LGT RAIN  68  68 100 CALM      30.10F
COLUMBIA       LGT RAIN  73  68  84 E3        30.11S
6HR MIN TEMP:  72; 6HR MAX TEMP:  85; 6HR PCP:  0.03;

SUMTER         CLOUDY    72  68  88 E3        30.09S
6HR MIN TEMP:  72; 6HR MAX TEMP:  84; 6HR PCP:  0.03;

FLORENCE       LGT RAIN  73  69  87 N3        30.11S
6HR MIN TEMP:  72; 6HR MAX TEMP:  85; 6HR PCP:  0.08;

MYRTLE BEACH   CLOUDY    73  66  78 N6        30.09S
N MYRTLE BEACH RAIN      74  71  91 CALM      30.07S FOG
6HR MIN TEMP:  73; 6HR MAX TEMP:  79; 6HR PCP:  0.06;


$$

GAZ063-065-086>088-099>101-113>116-118-119-134>141-150-290100-
...SOUTHEAST GEORGIA...

CITY           SKY/WX    TMP DP  RH WIND       PRES   REMARKS
SAVANNAH ARPT  CLOUDY    72  66  81 N12       30.06R
6HR MIN TEMP:  72; 6HR MAX TEMP:  80; 6HR PCP:  0.01;

HUNTER AAF     CLOUDY    72  68  89 VRB5      30.02S
6HR MIN TEMP:  71; 6HR MAX TEMP:  80; 6HR PCP:  0.09;

FORT STEWART   CLOUDY    73  66  78 NE9       30.04S
6HR MIN TEMP:  73; 6HR MAX TEMP:  84;

STATESBORO     CLOUDY    73  65  77 NE3       30.09R
SYLVANIA       CLOUDY    72  65  79 NE6       30.11R
CLAXTON        FAIR      74  66  78 NE7       30.08R

...CSRA...CENTRAL AND FAR SOUTHEAST GEORGIA...

CITY           SKY/WX    TMP DP  RH WIND       PRES   REMARKS
THOMSON        CLOUDY    79  70  73 NE3       30.13S
AUGUSTA-BUSH   CLOUDY    74  72  93 SE7       30.09R
6HR MIN TEMP:  73; 6HR MAX TEMP:  84; 6HR PCP:  0.19;

AUGUSTA-DANIEL CLOUDY    80  67  64 N3        30.10R
SWAINSBORO     FAIR      73  68  83 E8        30.08S
VIDALIA        CLOUDY    77  66  69 E10       30.06S
EASTMAN        FAIR      82  65  55 E7        30.08S
HAZLEHURST     FAIR      82  65  57 NE6       30.05R
ALMA           PTCLDY    82  64  54 NE10G18   30.03R
6HR MIN TEMP:  82; 6HR MAX TEMP:  88;

WAYCROSS       PTCLDY    81  65  59 E8G16     30.03R
JESUP          FAIR      70  63  78 E5        30.05F
BAXLEY         FAIR      81  66  61 E9        30.04S
BRUNSWICK      CLOUDY    77  70  78 N6        30.05R
SAINT SIMONS   CLOUDY    74  67  78 N9        30.02S
6HR MIN TEMP:  74; 6HR MAX TEMP:  84;


$$

SCZ027-028-034-036>038-045-046-048>050-GAZ119-141-290100-
...LAKE AND SUPPLEMENTAL COASTAL OBSERVATIONS...

STATION/POSITION TIME  TEMP    WIND        PRES    WAVE   SWELL
                       AIR SEA DIR/SP/G            HT/PER HT/PER/DIR
                 (UTC) (F)     (DEG/KT/KT) (MB)    (FT/S) (FT/S/D)
WINYAH BAY       2300   71     360/  6     1017.0F
LAKE MURRAY      2300   77      90/ 12/ 14 1018.6R
ACE BASIN NERRS  2300   69      20/  4     1018.0S
FORT PULASKI     0000           20/  9/ 18   N/A
SAPELO ISLAND    0000   73      10/ 13     1017.0S

$$

ANZ835-935-AMZ111-154-330-350-352-354-370-450-454-472-290100-
...C-MAN AND BUOY OBSERVATIONS...

STATION/POSITION TIME  TEMP    WIND        PRES    WAVE   SWELL
                       AIR SEA DIR/SP/G            HT/PER HT/PER/DIR
                 (UTC) (F)     (DEG/KT/KT) (MB)    (FT/S) (FT/S/D)
BUOY 41004       2350   76 77   60/ 19/ 23 1015.0F   9/ 9   5/ 9
BUOY 41008       2350   74 76  360/ 16/ 17 1016.7R   7/ 7   3/100/ 9
FOLLY BEACH CMAN 0000   70     340/ 16/ 20 1016.8F
CAPERS NEARSHORE 0008   72 76   20/ 21/ 31 1017.0R
FRIPP NEARSHORE  0008   72 76   30/ 23/ 31 1016.6R


STATION/POSITION TIME  TEMP    WIND        PRES    WAVE   SWELL
                       AIR SEA DIR/SP/G            HT/PER HT/PER/DIR
                 (UTC) (F)     (DEG/KT/KT) (MB)    (FT/S) (FT/S/D)
5E ST. MARYS GA  0001      78                N/A     6/ 6   2/ 90/11
FRYING PAN BUOY  0000   76 76   80/ 17/ 23 1017.6R
BUOY 41025       2350   78 78  130/ 12/ 16 1020.2S   4/ 8   3/130/ 8
CAPE LOOKOUT NC  0000   75      50/  7/  8 1019.5R
BUOY 41002       2350   76 76  130/ 14/ 16 1018.1R   5/ 5   2/110/ 7
BUOY 41010       2320   79 79  250/  4/  6 1015.7R
ST AUGUSTINE FL  0000   75 80  360/ 18/ 20 1017.2F


$$



USA.gov is the U.S. government's official web portal to all federal, state and local government web resources and services.